ATLAS 5 CENTAUR DEB, 49356

Orbit data source: Space-Track

ATLAS 5 CENTAUR DEB, 49356 is space debris in HEO originally from a launch on Wed, 17 Oct 2018 UTC launched from the Air Force Eastern Test Range (AFETR). Debris objects in space refer to the collection of defunct objects orbiting the Earth. Examples of debris include non-operational satellites, rocket bodies, and fragments generated from explosions, collisions, or faulty payload assembly.

Loading next visibility...
Identifier
49356, 2018-079FH
Orbit
HEO
Country
Flag of USUS
Related business
Flag of USUnited Launch Alliance/Lockheed Martin (US)
Manufacturer
ULA Decatur
Mission
Spacecraft
Bus & Motor
Unknown
Mass
Unknown
Launch date (UTC)
2018-10-17 (8 years ago)
Launch vehicle
Unknown
Launch site
Air Force Eastern Test Range (AFETR)
Object type
Payload
Rocket body
Debris
Shape & HBR
Unknown shape, 1.1 m
Radar Cross Section
RCS unknown

Expand to show TLE details & history
Last TLE update: 1 month ago

TLE from 1 month ago
0 ATLAS 5 CENTAUR DEB
1 49356U 18079FH  26186.93387276 -.00000087  00000-0  00000-0 0  9996
2 49356  13.3306  43.1229 4646391 296.6417  23.4066  1.78475867 31620
Epoch: 2026-07-05T22:24Z
TLE epoch observation values (Epoch: 2026-07-05T22:24:46.606Z)
Latitude
0.00005°
Longitude
143.01544°
Altitude
12,274.9 km
Speed
5.372 km/s
True Right ascension
02h 52m 32s
True Declination
0° 00' 00"
Sunlit
Object was in daylight at epoch
Visualization orbit readout
Latitude
Unknown
Longitude
Unknown
Altitude
Unknown
Speed
Unknown
Apparent Right ascension
Unknown
Apparent Declination
Unknown
Sunlit
N/A
Visualization observer readout
Local Sidereal Time
21:38:07
Azimuth
Unknown
Elevation
Unknown
Doppler factor
Unknown
Orbital elements
Apogee altitude
35,672.943 km
Perigee altitude
8,992.547 km
Semi-major axis
28,710.882 km
Eccentricity
0.46464
Inclination
13.3306°
RAAN
43.1229°
Arg. of periapsis
296.6417°
True anomaly
63.19747°
Mean anomaly
23.4066°
Eccentric anomaly
40.80289°
Mean motion
0.44614 °/min
Orbital period
806.92 mins
BSTAR
0
Loading maneuver chart data...
Computing Atmospheric mass density...

Documentation

Showing up to 5 results
|